Content
SEND FEEDBACK

Daily
Averages
Monthly
Summary
United States of America

BOSTWICK, FLORIDA


Home > North America > United States > Florida
Elevation: 0 feet     Latitude: 29 45N     Longitude: 081 32W

WEATHER
 
SELECT A DAY
Number of Records: 343,241;   Date Range: 7/1/96 - 11/23/14
 
SHARE

PRINT THIS DATA

[ ← Previous Day ]
WEATHER ALMANAC - FEBRUARY 18, 2013
[ Next Day → ]
[ °C ]   °F
Weather ElementAverageHighLow
Temperature48.6 °F59 °F (1:58 pm)30.9 °F (3:58 am)
Dewpoint35.2 °F48 °F (10:58 pm)23 °F (1:58 am)
Humidity61.6 %77 % (10:58 pm)40 % (9:58 am)
Barometer30.36 in30.43 in (9:58 am)30.25 in (11:58 pm)
Wind Speed6 mph10.4 mph (11:58 am)
Weather ElementAverage
Visibility10 mi
Wind DirectionESE (111 °)

Weather ElementTotal
Precipitation---
Heating Degree Days20.1 (Base 65)
Averaged from 21 records on February 18, 2013
WEATHER CONDITIONS BREAKOUT
WIND DIRECTION BREAKOUT
WEATHER BY HOUR - FEBRUARY 18, 2013
[ °C ]   °F
Local TimeTemperatureDewpointHumidityBarometerVisibilityWind DirectionWind SpeedGust SpeedPrecipitationEventsConditions
1:58 AM33.1 °F23.0 °F66 %30.38 in10.0 miCalmClear
2:58 AM32.0 °F23.0 °F69 %30.37 in10.0 miCalmClear
3:58 AM30.9 °F23.0 °F72 %30.37 in10.0 miCalmClear
4:58 AM30.9 °F24.1 °F76 %30.37 in10.0 miCalmClear
5:58 AM30.9 °F24.1 °F76 %30.39 in10.0 miWest (280°)3.5 mphClear
6:58 AM32.0 °F24.1 °F73 %30.40 in10.0 miWest (280°)3.5 mphClear
7:58 AM36.0 °F27.0 °F70 %30.40 in10.0 miWNW (300°)4.6 mphClear
9:58 AM54.0 °F30.0 °F40 %30.43 in10.0 miEast (100°)6.9 mphClear
10:58 AM55.9 °F33.1 °F42 %30.43 in10.0 miESE (110°)8.1 mphClear
11:58 AM57.0 °F35.1 °F44 %30.42 in10.0 miEast (80°)10.4 mphClear
12:58 PM57.9 °F36.0 °F44 %30.39 in10.0 miESE (120°)9.2 mphClear
1:58 PM59.0 °F37.9 °F46 %30.37 in10.0 miEast (90°)9.2 mphClear
2:58 PM59.0 °F39.0 °F48 %30.35 in10.0 miENE (70°)10.4 mphClear
3:58 PM59.0 °F41.0 °F51 %30.35 in10.0 miEast (90°)10.4 mphClear
4:58 PM57.9 °F42.1 °F56 %30.34 in10.0 miENE (70°)8.1 mphClear
5:58 PM57.0 °F43.0 °F59 %30.34 in10.0 miEast (80°)8.1 mphClear
6:58 PM57.0 °F46.0 °F67 %30.32 in10.0 miEast (90°)6.9 mphClear
7:58 PM55.9 °F46.0 °F69 %30.31 in10.0 miEast (100°)6.9 mphClear
8:58 PM55.9 °F46.9 °F72 %30.30 in10.0 miSE (140°)8.1 mphClear
10:58 PM55.0 °F48.0 °F77 %30.27 in10.0 miSSE (150°)6.9 mphClear
11:58 PM54.0 °F46.9 °F77 %30.25 in10.0 miSouth (180°)4.6 mphClear
Hourly data recorded from KSGJ, located miles away from Bostwick, Florida







STORIES FROM OUR PARTNERS